Location: Branche des Alpilles
(43.6087°N, 4.6976°E)
Time: 08:14:44
(UTC+00:00)

FENGYUN 1C DEB - Pass Details

Date: 23 June 2021
Orbit: 782 x 878 km, 99.7° (Epoch: 28 July)

Event Time Altitude Azimuth Distance (km) Brightness Sun altitude
Exits shadow 02:53:17 12° 241° (WSW) 2,284 ? -10.1°
Maximum altitude 02:55:34 15° 269° (W) 2,073 ? -9.8°
Drops below altitude 10° 02:58:25 10° 302° (WNW) 2,373 ? -9.4°
Sets 03:01:51 0° 326° (NW) 3,295 ? -9.0°
